FW4154 Weather Reports


Display with metric or nautical units.
time (UTC)temp
F
wind
direction
speed
MPH
gust
MPH
rain 1hr
in
rain 24hr
in
rain mn
in
humidity
%
barometer
mb
20260506153356 54 155 5.0 8.0 0.00 0.00 0.00 94 1000.2
20260506152854 54 160 3.0 7.0 0.00 0.00 0.00 93 1000.2
20260506152353 54 174 3.0 7.0 0.00 0.00 0.00 93 1000.2
20260506151412 54 211 5.0 8.0 0.00 0.00 0.00 93 1000.2
20260506150848 54 213 5.0 9.0 0.00 0.00 0.00 93 1000.2
20260506145918 54 192 7.0 9.0 0.00 0.00 0.00 93 1000.2
20260506145358 55 161 8.0 10.0 0.00 0.00 0.00 93 1000.2
20260506144400 55 170 7.0 11.0 0.00 0.00 0.00 92 1000.2
20260506143410 55 169 7.0 11.0 0.00 0.00 0.00 91 1000.2
20260506142411 55 171 7.0 11.0 0.00 0.00 0.00 92 1000.2
20260506141412 55 159 8.0 11.0 0.00 0.00 0.00 92 1000.2
20260506140901 55 170 7.0 11.0 0.00 0.00 0.00 92 1000.2
20260506140359 55 150 7.0 11.0 0.00 0.00 0.00 92 1000.2
20260506135410 55 209 6.0 8.0 0.00 0.00 0.00 91 1000.2
20260506134405 55 204 7.0 10.0 0.00 0.00 0.00 91 1000.2
20260506133857 55 196 6.0 9.0 0.00 0.00 0.00 91 1000.2
20260506132910 55 177 7.0 12.0 0.00 0.00 0.00 91 1000.2
20260506131856 55 153 6.0 10.0 0.00 0.00 0.00 91 1000.2
20260506130915 55 141 8.0 12.0 0.00 0.00 0.00 91 1000.2
20260506130359 55 145 8.0 11.0 0.00 0.00 0.00 91 1000.2
20260506125857 55 142 7.0 12.0 0.00 0.00 0.00 91 1000.2
20260506124857 55 134 9.0 12.0 0.00 0.00 0.00 91 1000.2
20260506123908 55 151 7.0 10.0 0.00 0.00 0.00 91 1000.2
20260506122910 55 162 6.0 9.0 0.00 0.00 0.00 90 1000.2
20260506121913 55 193 6.0 8.0 0.00 0.00 0.00 90 1000.2
20260506120859 55 198 6.0 9.0 0.00 0.00 0.00 90 1000.2
20260506120354 55 202 6.0 10.0 0.00 0.00 0.00 90 1000.2
20260506115412 55 181 8.0 10.0 0.00 0.00 0.00 91 1000.2
20260506114904 55 178 8.0 10.0 0.00 0.00 0.00 90 1000.2
20260506113904 55 188 6.0 10.0 0.00 0.00 0.00 91 1000.2
20260506112917 55 177 7.0 9.0 0.00 0.00 0.00 90 1000.2
20260506112359 55 178 7.0 11.0 0.00 0.00 0.00 91 1000.2
20260506111408 55 177 9.0 11.0 0.00 0.00 0.00 90 1000.2
20260506110409 55 207 9.0 12.0 0.00 0.00 0.00 91 1000.2
20260506105856 55 184 9.0 12.0 0.00 0.00 0.00 91 1000.2
20260506104902 55 188 8.0 11.0 0.00 0.00 0.00 91 1000.2
20260506104358 55 192 9.0 11.0 0.00 0.00 0.00 90 1000.2
20260506103857 55 190 7.0 10.0 0.00 0.00 0.00 90 1000.2
20260506102923 56 196 9.0 11.0 0.00 0.00 0.00 90 1000.2
20260506101913 56 204 9.0 11.0 0.00 0.00 0.00 90 1000.2
20260506100907 56 197 9.0 10.0 0.00 0.00 0.00 90 1000.2
20260506095854 56 219 8.0 10.0 0.00 0.00 0.00 90 1000.2
20260506094855 56 210 8.0 11.0 0.00 0.00 0.00 90 1000.2
20260506093909 56 189 7.0 9.0 0.00 0.00 0.00 91 1000.2
20260506093404 56 186 7.0 9.0 0.00 0.00 0.00 91 1000.2
20260506092904 55 202 5.0 9.0 0.00 0.00 0.00 91 1000.2
20260506092402 55 236 5.0 9.0 0.00 0.00 0.00 92 1000.2
20260506091859 55 192 6.0 8.0 0.00 0.00 0.00 93 1000.2
20260506090901 54 47 1.0 3.0 0.00 0.00 0.00 94 1000.2
20260506085906 54 44 0.0 1.0 0.00 0.00 0.00 95 1000.2
20260506085357 53 44 0.0 1.0 0.00 0.00 0.00 94 1000.2
20260506084415 53 44 0.0 2.0 0.00 0.00 0.00 95 1000.2
20260506083401 53 44 0.0 2.0 0.00 0.00 0.00 94 1000.2
20260506082410 53 44 0.0 2.0 0.00 0.00 0.00 94 1000.2
20260506081905 53 44 0.0 2.0 0.00 0.00 0.00 94 1000.2
20260506081359 53 44 1.0 2.0 0.00 0.00 0.00 93 1000.2
20260506080405 54 44 0.0 2.0 0.00 0.00 0.00 93 1000.2
20260506073405 54 44 2.0 4.0 0.00 0.00 0.00 93 1000.2
20260506072409 54 228 0.0 2.0 0.00 0.00 0.00 93 1000.2
20260506071412 54 229 0.0 2.0 0.00 0.00 0.00 93 1000.2
20260506070856 54 228 0.0 2.0 0.00 0.00 0.00 93 1000.2
20260506062414 55 228 0.0 0.0 0.00 0.00 0.00 92 1000.2
20260506061858 55 228 0.0 2.0 0.00 0.00 0.00 92 1000.2
20260506060915 55 228 0.0 2.0 0.00 0.00 0.00 92 1000.2
20260506060407 56 228 0.0 2.0 0.00 0.00 0.00 92 1000.2
20260506051357 56 228 0.0 2.0 0.00 0.00 0.00 90 1000.2
20260506050419 57 228 0.0 1.0 0.00 0.00 0.00 90 1000.2
20260506044859 57 228 0.0 2.0 0.00 0.00 0.00 89 1000.2
20260506043859 58 228 0.0 2.0 0.00 0.00 0.00 89 1000.2
20260506042913 58 228 0.0 2.0 0.00 0.00 0.00 88 1000.2
20260506042408 58 228 0.0 1.0 0.00 0.00 0.00 88 1000.2
20260506041859 58 228 0.0 0.0 0.00 0.00 0.00 87 1000.2
20260506040903 59 228 0.0 2.0 0.00 0.00 0.00 87 1000.2
20260506040402 59 228 0.0 2.0 0.00 0.00 0.00 87 1000.2
20260506035421 60 229 1.0 2.0 0.00 0.00 0.00 85 1000.2
20260506034913 60 228 0.0 2.0 0.00 0.00 0.00 84 1000.2
20260506034410 60 228 0.0 2.0 0.00 0.00 0.00 84 1000.2
20260506033900 61 228 1.0 2.0 0.00 0.00 0.00 84 1000.2
20260506032908 61 228 1.0 3.0 0.00 0.00 0.00 83 1000.2
20260506031914 62 226 2.0 4.0 0.00 0.00 0.00 82 1000.2
20260506031402 63 174 2.0 6.0 0.00 0.00 0.00 80 1000.2
20260506030405 63 123 1.0 7.0 0.00 0.00 0.00 77 1000.2
20260506025855 63 138 3.0 7.0 0.00 0.00 0.00 78 1000.2
20260506024913 63 133 1.0 9.0 0.00 0.00 0.00 79 1000.2
20260506024406 63 147 5.0 9.0 0.00 0.00 0.00 78 1000.2
20260506023400 63 122 5.0 9.0 0.00 0.00 0.00 77 1000.2
20260506021911 63 141 5.0 9.0 0.00 0.00 0.00 78 1000.2
20260506021403 63 155 6.0 9.0 0.00 0.00 0.00 80 1000.2
20260506020857 63 125 5.0 9.0 0.00 0.00 0.00 81 1000.2
20260506020356 63 153 6.0 8.0 0.00 0.00 0.00 80 1000.2
20260506015413 63 175 6.0 8.0 0.00 0.00 0.00 82 1000.2
20260506014855 63 163 6.0 8.0 0.00 0.00 0.00 81 1000.2
20260506013903 63 165 6.0 8.0 0.00 0.00 0.00 81 1000.2
20260506012914 63 173 6.0 7.0 0.00 0.00 0.00 82 1000.2
20260506012359 63 169 5.0 9.0 0.00 0.00 0.00 81 1000.2
20260506011403 63 137 4.0 10.0 0.00 0.00 0.00 78 1000.2
20260506010629 57 132 5.0 9.0 0.00 0.00 0.00 87 1000.2
20260505161901 57 180 8.0 10.0 0.00 0.00 0.00 88 1000.2